Location: Cargill Incorporated Elevator
(42.7294°N, 93.7333°W)
Time: 04:57:50
(UTC+00:00)

SMAP - Pass Details

Date: 19 January 2026
Orbit: 682 x 683 km, 98.1° (Epoch: 15 February)

Event Time Altitude Azimuth Distance (km) Brightness Sun altitude
Rises 12:25:36 0° 15° (NNE) 3,054 6.4 -13.6°
Reaches altitude 10° 12:27:52 10° 18° (NNE) 2,134 5.6 -13.2°
Maximum altitude 12:32:31 69° 101° (ESE) 732 3.4 -12.4°
Drops below altitude 10° 12:37:08 10° 186° (S) 2,117 5.7 -11.6°
Sets 12:39:23 0° 188° (S) 3,028 6.5 -11.2°
